Glendive, MT

10:35 AM MST on December 05, 2019 (GMT -0700)
Dawson Community

Weather History for KGDV - October, 2019

Change the Weather History Date:

Wednesday, October 23, 2019

  Actual Average Record
Temperature  
Mean Temperature 37 °F 45 °F  
Max Temperature 43 °F 57 °F 72 °F (1992)
Min Temperature 30 °F 33 °F 15 °F (2002)
Degree Days  
Heating Degree Days 28 20  
Month to date heating degree days 532 358  
Year to date heating degree days 6399 4757  
Since 1 July heating degree days 833 465  
Cooling Degree Days 0 0  
Month to date cooling degree days 0 0  
Year to date cooling degree days 465 382  
Since 1 July cooling degree days 465 382  
Moisture  
Dew Point 31 °F    
Average Humidity 87    
Maximum Humidity 100    
Minimum Humidity 51    
Precipitation  
Precipitation 0.12 in 0.02 in 0.12 in (2019)
Month to date precipitation 0.59 0.89  
Year to date precipitation 17.76 12.55  
Sea Level Pressure  
Sea Level Pressure 30.15 in    
Wind  
Wind Speed 12 mph (NNW)    
Max Wind Speed 21 mph    
Max Gust Speed 24 mph    
Visibility 9 miles    
Events Rain , Snow    
T = Trace of Precipitation, MM = Missing Value Source: NWS Daily Summary

Daily Weather History Graph

Daily Weather History Graph

Search for Another Location

Airport or City:

Astronomy

Oct. 23, 2019 Rise Set
Actual Time 7:28 AM MDT 5:57 PM MDT
Civil Twilight 6:57 AM MDT 6:28 PM MDT
Nautical Twilight 6:21 AM MDT 7:04 PM MDT
Astronomical Twilight 5:46 AM MDT 7:39 PM MDT
Moon 1:21 AM MDT (10/23) 4:15 PM MDT (10/23)
Length of Visible Light 11h 31m
Length of Day
10h 28m
Waning Crescent, 26% of the Moon is Illuminated
Oct 23
Waning Crescent
Oct 27
New
Nov 4
First Quarter
Nov 12
Full
Nov 19
Last Quarter

Hourly Weather History & Observations

Time (MDT) Temp. Windchill Dew Point Humidity Pressure Visibility Wind Dir Wind Speed Gust Speed Precip Events Conditions
12:56 AM 37.9 °F 32.1 °F 37.9 °F 100% 29.71 in 10.0 mi NE 8.1 mph - 0.08 in Rain Light Rain
1:07 AM 37.4 °F 30.3 °F 37.4 °F 100% 29.71 in 10.0 mi NNE 10.4 mph - 0.00 in Rain Light Rain
1:56 AM 35.1 °F 24.5 °F 34.0 °F 96% 29.75 in 6.0 mi NE 18.4 mph - 0.01 in Rain Light Rain
2:46 AM 32.0 °F 19.8 °F 32.0 °F 100% 29.81 in 2.0 mi NNE 20.7 mph - 0.02 in Snow Light Snow
2:56 AM 32.0 °F 20.1 °F 30.9 °F 96% 29.82 in 1.8 mi NNE 19.6 mph - 0.02 in Snow Light Snow
3:15 AM 32.0 °F 20.5 °F 30.2 °F 93% 29.84 in 2.0 mi NE 18.4 mph 24.2 mph 0.00 in Snow Light Snow
3:56 AM 32.0 °F 20.8 °F 30.9 °F 96% 29.87 in 4.0 mi NNE 17.3 mph - 0.00 in Snow Light Snow
4:56 AM 32.0 °F 21.2 °F 30.9 °F 96% 29.93 in 8.0 mi NNE 16.1 mph - 0.00 in Snow Light Snow
5:38 AM 32.0 °F 21.2 °F 30.2 °F 93% 29.97 in 10.0 mi NNE 16.1 mph - 0.00 in   Overcast
5:56 AM 32.0 °F - 30.0 °F 92% 30.05 in 10.0 mi North - - 0.00 in   Overcast
6:56 AM 32.0 °F 23.0 °F 30.0 °F 92% 30.10 in 10.0 mi NNW 11.5 mph - N/A   Overcast
7:56 AM 30.0 °F 20.5 °F 28.0 °F 92% 30.15 in 10.0 mi NNW 11.5 mph - N/A   Mostly Cloudy
8:56 AM 30.0 °F 21.1 °F 27.0 °F 88% 30.20 in 10.0 mi North 10.4 mph - N/A   Scattered Clouds
9:56 AM 30.9 °F 24.3 °F 27.0 °F 85% 30.24 in 10.0 mi NNW 6.9 mph - N/A   Clear
10:56 AM 32.0 °F 27.5 °F 27.0 °F 82% 30.26 in 10.0 mi WNW 4.6 mph - 0.01 in   Clear
11:56 AM 35.1 °F 31.0 °F 27.0 °F 72% 30.27 in 10.0 mi NNW 4.6 mph - N/A   Clear
12:56 PM 37.9 °F 32.1 °F 27.0 °F 65% 30.28 in 10.0 mi West 8.1 mph - N/A   Clear
1:56 PM 39.9 °F 35.1 °F 25.0 °F 55% 30.27 in 10.0 mi WNW 6.9 mph - N/A   Clear
2:56 PM 41.0 °F 37.1 °F 24.1 °F 51% 30.28 in 10.0 mi NW 5.8 mph - N/A   Scattered Clouds
3:56 PM 39.9 °F 31.8 °F 26.1 °F 58% 30.30 in 10.0 mi West 15.0 mph - N/A   Overcast
4:38 PM 37.4 °F 30.8 °F 30.2 °F 75% 30.24 in 10.0 mi West 9.2 mph - N/A   Overcast
4:56 PM 37.9 °F 31.5 °F 33.1 °F 83% 30.32 in 9.0 mi West 9.2 mph - 0.00 in Rain Light Rain
5:56 PM 37.0 °F 28.9 °F 34.0 °F 89% 30.32 in 10.0 mi West 12.7 mph - 0.00 in   Overcast
6:43 PM 35.6 °F 26.6 °F 33.8 °F 93% 30.26 in 10.0 mi WNW 13.8 mph - 0.00 in   Overcast
6:56 PM 36.0 °F 27.1 °F 33.1 °F 89% 30.34 in 10.0 mi WNW 13.8 mph - 0.00 in   Overcast
7:17 PM 35.6 °F 27.1 °F 33.8 °F 93% 30.28 in 10.0 mi NW 12.7 mph - N/A   Overcast
7:45 PM 35.6 °F 26.2 °F 33.8 °F 93% 30.28 in 10.0 mi NW 15.0 mph - 0.00 in   Overcast
7:56 PM 35.1 °F 25.5 °F 33.1 °F 92% 30.37 in 10.0 mi NW 15.0 mph - 0.00 in   Overcast
8:56 PM 34.0 °F 27.2 °F 33.1 °F 96% 30.38 in 10.0 mi West 8.1 mph - N/A   Overcast
9:56 PM 34.0 °F 27.2 °F 32.0 °F 92% 30.39 in 10.0 mi WNW 8.1 mph - N/A   Overcast
10:56 PM 35.1 °F 28.6 °F 32.0 °F 89% 30.39 in 10.0 mi NW 8.1 mph - N/A   Overcast
11:56 PM 35.1 °F 31.0 °F 32.0 °F 89% 30.39 in 10.0 mi West 4.6 mph - 0.00 in   Overcast